Theta_e
299 292 288 291 291 290 287 287 287 288 290 290 291 292 295 299 298 298 298 298 299 302 306 307 315 330 332 333 333 334 335 336 337 335 330 329 330 335 336 336 336 335 335 334
293 288 293 294 292 290 288 285 286 288 291 291 290 289 293 295 296 298 299 300 299 301 302 304 305 310 328 331 332 333 334 335 336 336 334 335 334 335 335 336 336 336 335 335
289 291 295 292 290 288 288 286 285 285 289 290 288 287 290 294 295 296 297 299 300 300 301 303 304 304 308 323 330 331 333 334 335 336 336 333 335 332 332 334 335 336 336 336
292 295 292 291 289 290 285 290 288 286 285 281 288 281 287 289 290 291 294 298 299 300 301 300 302 303 304 306 315 329 331 332 334 335 334 331 330 329 332 333 335 335 336 336
288 291 290 289 289 291 287 291 289 288 286 285 285 282 286 287 288 291 293 293 294 295 296 297 298 299 301 304 305 309 322 329 331 333 333 332 331 333 334 333 332 333 333 334
291 295 294 292 293 292 292 289 288 288 286 279 283 282 284 286 288 289 291 294 293 293 296 299 300 300 300 300 302 305 310 319 327 330 332 331 331 331 329 329 330 331 331 331
288 289 294 294 290 292 290 286 280 278 278 277 283 282 285 288 290 291 292 292 294 297 297 297 297 298 300 302 305 307 310 312 316 316 317 322 327 328 328 327 327 325 324 319
281 279 289 293 291 287 286 286 280 273 275 278 282 279 284 290 292 292 292 294 294 293 293 292 293 294 294 296 299 301 302 302 301 301 300 302 303 304 303 304 306 307 308 309
281 281 291 293 294 292 287 284 288 280 275 279 281 284 288 291 290 291 292 292 290 289 290 290 290 290 291 291 292 294 295 295 296 296 296 296 297 298 297 298 300 301 302 303
285 280 289 291 294 294 290 292 282 284 275 274 279 280 284 287 289 289 290 289 289 289 288 288 287 287 288 288 289 289 290 289 290 291 292 292 293 294 295 295 295 295 296 298
288 284 284 289 287 286 287 285 286 286 283 277 276 280 288 290 290 289 287 288 288 287 287 286 286 286 286 286 286 286 287 287 287 287 288 288 288 289 289 290 291 292 292 293
288 285 280 283 289 291 291 287 287 281 279 282 280 281 289 290 291 291 287 287 286 286 285 284 284 284 284 284 284 284 285 284 285 285 286 285 286 286 286 286 287 288 288 289
288 282 276 277 284 288 286 287 289 288 286 281 279 281 289 289 289 290 288 287 285 284 283 283 283 282 282 282 283 282 283 283 284 284 284 283 283 283 283 284 285 285 286 287
288 283 279 275 279 284 282 286 287 286 282 282 282 284 284 286 288 287 287 286 284 283 282 282 282 281 281 281 281 281 281 282 282 283 282 282 282 282 282 283 283 284 285 285
286 279 281 281 282 282 282 283 285 284 285 282 284 285 286 287 288 288 287 285 282 281 281 281 280 280 280 279 280 280 280 280 281 281 281 280 281 281 282 282 282 282 283 283
285 279 280 278 281 280 280 282 282 284 284 286 285 284 289 289 289 286 285 284 283 282 281 280 279 279 278 278 278 278 279 279 280 280 279 280 280 280 280 280 281 281 281 282
281 279 278 274 278 279 275 280 282 283 285 284 280 285 290 288 289 286 285 284 283 282 280 279 278 277 277 277 277 277 277 279 278 278 277 278 278 278 278 279 279 279 280 281
277 277 276 274 275 269 279 281 282 283 284 286 285 286 290 290 289 287 286 284 282 280 279 277 276 276 276 276 276 276 276 276 276 275 274 275 276 275 276 276 276 277 277 278
282 279 273 273 272 275 279 279 280 280 281 286 285 285 284 281 281 279 280 282 281 280 278 277 276 275 275 275 275 274 274 274 273 272 272 273 274 273 274 273 274 275 275 276
281 281 277 271 270 268 278 280 283 284 277 283 286 285 282 281 281 285 278 277 276 276 276 274 274 274 273 274 274 272 271 271 270 270 270 271 272 272 272 272 272 273 274 273
274 275 273 272 272 275 280 280 282 275 278 281 283 284 283 282 282 278 277 276 276 275 274 273 273 272 271 272 272 270 269 268 268 269 269 269 270 270 271 271 271 272 272 272
273 272 272 271 270 268 280 279 278 281 279 280 281 282 282 278 275 275 275 274 273 272 272 271 270 269 269 270 270 268 267 267 268 268 268 268 269 270 270 270 270 270 271 270
274 278 276 276 276 281 280 280 280 279 280 279 280 280 282 277 275 275 274 273 272 272 271 270 269 267 267 267 269 267 265 266 266 266 265 266 267 268 269 269 268 269 269 269
277 276 278 276 281 280 281 280 279 279 280 279 279 280 279 279 276 273 272 271 270 270 268 268 267 266 264 265 265 265 264 265 264 264 265 265 266 266 266 268 268 269 268 268
277 276 277 276 278 277 279 278 283 277 276 275 274 277 279 278 275 273 271 270 269 268 266 266 265 264 263 263 263 263 263 264 264 265 265 266 266 266 265 266 267 267 268 269
276 278 276 276 281 282 283 278 275 275 274 275 274 271 272 275 275 272 271 270 268 266 266 265 265 264 263 262 262 262 263 264 264 265 265 265 265 265 265 265 265 265 267 268
Wind_Speed
11 9 13 15 15 8 2 6 13 4 2 6 16 14 18 15 10 10 7 9 11 14 13 9 10 13 14 15 16 16 16 16 13 11 9 8 9 9 9 9 11 11 10 12
6 16 14 8 11 12 9 5 6 3 1 5 7 11 16 13 12 16 17 14 12 12 10 11 10 11 14 16 16 16 16 16 14 11 10 7 8 8 8 8 11 14 14 13
16 3 13 13 10 14 15 17 9 3 1 1 7 14 14 10 8 10 12 14 14 15 14 12 9 10 10 14 16 16 16 16 15 15 9 8 4 3 7 10 10 12 13 13
15 11 10 14 18 15 17 9 9 4 2 8 2 8 5 4 8 10 12 13 14 13 12 11 11 10 9 10 10 13 14 15 14 15 12 15 11 10 10 8 8 8 11 11
6 10 10 10 8 14 10 9 12 12 12 10 15 8 5 2 8 11 1 0 2 4 7 8 8 8 8 7 7 8 11 12 13 14 14 12 12 9 6 6 7 6 6 8
16 1 10 15 6 15 10 9 6 3 5 10 16 11 7 8 4 2 1 6 7 7 5 7 7 8 7 4 3 5 7 9 10 12 14 14 13 11 6 5 5 5 4 4
13 13 4 4 12 9 12 15 5 6 7 10 2 11 13 2 4 7 6 4 7 8 9 10 11 11 11 11 8 6 7 8 6 6 6 1 6 5 6 3 3 3 3 3
14 9 17 11 11 8 15 18 6 9 8 6 5 10 3 2 3 2 4 6 8 10 9 11 11 11 12 12 12 11 12 12 11 12 12 11 11 7 7 8 6 6 5 5
11 15 7 12 8 15 14 14 3 4 2 2 6 4 4 4 4 4 5 7 8 9 10 11 12 12 12 13 14 13 14 14 14 13 12 12 11 11 10 10 8 7 7 6
1 6 9 17 11 16 13 14 10 5 7 8 6 4 5 9 6 5 6 6 7 8 10 10 11 12 12 12 12 14 15 15 14 14 13 12 13 12 11 11 11 10 8 8
6 2 4 8 16 19 12 8 9 6 5 6 7 4 2 7 6 8 7 7 8 8 9 9 10 11 11 12 13 13 14 15 14 13 13 13 12 12 12 11 10 10 10 10
9 3 5 14 2 4 20 18 16 9 9 6 3 3 2 6 6 8 8 8 8 8 8 8 9 10 11 12 12 13 13 14 13 12 13 13 12 12 13 12 11 10 10 10
7 4 5 4 5 4 5 9 10 7 3 12 9 4 6 6 7 7 10 9 8 8 8 7 9 10 10 11 11 12 12 12 11 12 12 12 13 12 12 12 11 11 10 11
2 4 5 10 3 2 4 10 13 10 5 9 14 7 10 10 9 8 8 8 8 7 7 7 8 9 9 10 10 10 11 10 10 11 12 12 11 11 11 10 11 10 10 10
2 3 4 2 2 1 1 5 11 17 19 7 3 11 16 14 12 9 8 7 7 7 7 7 7 7 8 8 8 8 9 9 9 10 11 11 9 9 10 10 10 10 10 9
3 6 4 2 3 1 4 8 9 6 1 10 4 3 5 9 8 10 10 9 8 8 8 8 8 7 7 7 7 7 7 8 8 9 9 9 9 9 9 9 8 8 8 8
4 4 3 3 4 1 5 10 14 9 7 9 6 7 13 12 8 9 9 10 9 9 8 7 7 6 6 6 6 6 6 7 8 8 8 8 8 8 8 8 8 8 7 7
4 2 2 2 1 4 1 4 5 12 8 10 2 6 16 8 7 7 8 14 14 12 12 9 6 6 6 6 6 6 6 6 7 8 8 8 7 7 7 7 7 7 6 6
2 2 3 2 4 5 5 5 7 7 5 13 12 9 7 7 6 4 5 5 10 11 9 8 7 7 6 5 5 6 6 6 6 7 6 6 6 6 7 7 7 6 5 5
3 4 1 3 4 7 4 1 3 4 5 5 9 12 10 10 7 4 13 11 12 11 9 10 9 7 6 5 5 6 6 5 5 5 5 5 5 6 6 6 6 6 5 5
4 3 9 5 5 8 7 2 2 6 2 3 3 7 13 8 2 7 12 11 11 10 10 9 8 6 5 5 5 6 5 5 4 4 4 5 4 5 5 5 4 4 4 5
7 8 5 4 6 13 6 5 7 1 2 1 2 4 8 7 9 11 11 12 12 12 11 9 8 6 4 4 5 5 5 4 3 4 4 4 4 3 4 4 4 4 4 4
5 5 4 8 6 1 4 3 1 2 2 3 2 3 6 9 8 12 11 12 12 12 10 8 8 7 4 3 4 6 5 4 4 4 4 4 4 4 3 4 3 3 3 3
5 4 4 1 6 10 10 5 6 7 4 3 2 4 6 5 9 10 10 11 10 10 9 8 9 8 6 4 4 4 5 4 4 5 5 4 3 3 3 2 2 2 2 2
0 7 5 6 7 5 10 10 7 8 4 4 2 3 6 6 8 9 10 11 10 10 8 8 8 7 7 6 5 4 4 5 5 4 4 4 3 2 2 1 1 0 1 1
8 8 7 8 7 5 4 2 2 8 8 8 7 4 3 6 7 8 8 9 10 10 9 8 8 8 8 7 6 5 4 5 5 5 4 3 2 2 1 1 1 1 3 4
Wind_Direction
194 212 214 212 217 237 273 217 243 184 133 219 244 249 257 252 242 253 252 250 245 243 254 251 235 222 214 211 207 207 204 204 196 198 194 203 206 212 210 213 215 215 217 216
177 229 233 233 213 221 224 212 230 269 120 236 263 256 264 257 254 242 246 245 248 248 237 238 230 222 217 214 212 211 209 204 203 196 199 207 204 223 220 219 215 212 212 215
216 165 214 206 206 215 228 231 219 301 294 255 295 264 243 249 249 245 246 247 249 244 249 247 225 221 226 224 217 214 212 209 204 207 195 197 197 207 208 221 223 221 217 214
230 197 173 212 225 210 226 213 216 185 306 256 310 280 240 266 272 247 241 235 243 250 261 267 262 250 228 234 237 227 219 212 208 200 197 198 206 210 218 215 217 211 209 213
187 180 186 205 215 207 237 170 204 225 245 283 234 260 225 302 267 260 273 264 313 302 274 284 293 294 285 266 235 229 227 218 209 205 206 208 221 227 222 210 199 195 189 204
227 193 209 219 184 196 148 135 103 119 216 250 241 226 224 226 245 294 312 3 7 0 15 24 22 18 19 346 244 219 211 218 213 209 210 215 218 225 217 215 194 184 175 174
214 216 165 178 190 184 184 172 154 193 200 245 54 214 253 206 305 295 308 25 44 37 35 31 31 35 37 39 45 75 112 85 57 61 50 311 231 219 221 212 198 169 136 86
209 204 208 178 205 177 200 193 189 202 206 219 148 229 158 333 62 53 64 72 60 53 49 46 41 45 47 48 56 66 74 74 65 66 63 55 57 68 65 54 66 72 78 60
213 224 189 187 183 173 191 222 230 108 62 214 191 240 234 146 107 97 87 77 65 63 60 58 56 52 51 54 55 62 72 71 67 70 70 65 62 65 71 67 70 71 65 67
269 214 195 202 212 210 201 183 198 216 202 228 196 238 210 184 159 133 108 99 90 80 71 67 62 58 54 54 58 62 65 66 66 66 65 66 66 66 67 66 65 63 61 60
168 241 174 181 205 204 202 196 227 222 225 243 237 195 97 166 160 145 134 117 106 88 77 71 70 66 65 62 59 61 61 62 61 61 64 66 63 63 63 62 57 57 58 55
201 174 258 215 74 269 228 211 198 207 199 237 346 164 132 136 132 137 139 131 109 92 81 72 67 67 63 61 57 56 58 60 59 63 65 62 62 62 60 56 52 50 54 52
161 196 245 258 219 174 206 222 209 233 339 210 211 168 156 143 140 142 144 134 119 108 98 85 74 65 62 61 61 58 55 59 58 62 65 64 60 59 59 55 50 47 49 51
140 198 233 244 293 53 219 214 211 232 234 212 217 202 184 180 174 167 151 141 134 126 116 103 88 77 68 60 56 58 58 55 60 65 66 64 59 59 58 57 54 52 51 55
21 318 202 177 88 360 268 327 228 214 226 244 235 218 189 184 182 176 155 148 148 141 134 120 107 96 89 80 74 66 62 57 58 65 67 66 63 61 61 58 56 54 54 54
144 187 202 257 155 37 278 263 274 274 66 234 172 175 318 138 126 161 177 177 182 172 156 139 125 114 97 86 77 71 65 62 62 64 63 60 63 61 59 59 59 60 58 57
160 167 206 169 346 321 266 218 227 231 187 162 200 212 168 188 201 185 191 199 195 177 168 159 140 123 107 91 86 79 72 70 68 70 62 56 56 59 55 55 57 55 54 60
134 102 23 72 134 232 164 176 224 240 251 218 200 155 194 197 171 158 189 190 184 174 166 163 153 130 111 101 88 84 75 74 70 65 57 50 53 56 55 56 55 56 56 56
6 134 115 187 216 316 256 189 179 195 251 217 211 192 157 138 144 167 157 174 161 159 151 152 149 133 126 122 116 104 90 82 74 66 62 53 54 57 51 49 42 34 45 50
158 18 302 160 213 221 274 27 179 171 264 161 185 184 166 156 205 170 156 144 136 138 146 147 144 137 130 126 128 125 112 105 92 76 68 58 60 65 66 54 49 38 38 39
165 203 223 213 239 276 250 250 292 179 252 142 175 167 162 191 2 115 138 138 141 143 146 141 143 142 135 143 140 126 118 99 88 90 86 76 69 77 70 76 64 64 68 69
180 178 194 178 223 255 151 117 205 357 7 53 157 166 169 120 131 145 150 151 153 152 155 155 149 143 133 139 142 128 120 110 109 103 92 80 70 73 77 84 77 68 73 82
223 207 186 208 215 337 234 268 138 245 181 204 210 169 163 150 173 166 170 166 166 162 159 158 153 146 138 141 165 155 145 156 144 125 109 103 92 81 80 90 85 80 62 52
226 166 234 227 212 234 241 230 225 200 209 173 232 161 184 185 164 169 165 168 167 164 162 157 155 159 157 156 147 146 160 162 156 149 145 136 128 118 96 98 81 89 74 52
212 162 199 252 273 290 254 234 238 193 192 171 187 200 204 188 188 177 175 176 173 168 163 168 171 169 168 164 159 159 165 177 173 161 151 145 125 116 94 72 89 41 40 309
184 204 204 244 188 212 236 327 163 175 192 197 181 193 222 210 191 176 179 178 172 171 167 173 177 172 172 175 173 175 182 185 184 167 166 139 143 130 97 19 358 7 296 330